GW5593 Weather Reports


time (UTC)temp
C
wind
direction
speed
KPH
gust
KPH
rain 1hr
cm
rain 24hr
cm
rain mn
cm
humidity
%
barometer
mb
20260905173143 32 104 1.6 6.4 0.00 0.00 0.00 55 1014.0
20260905172643 32 263 1.6 3.2 0.00 0.00 0.00 54 1014.0
20260905172144 32 235 3.2 4.8 0.00 0.00 0.00 54 1014.0
20260905171644 32 237 3.2 6.4 0.00 0.00 0.00 54 1014.0
20260905171143 32 322 1.6 4.8 0.00 0.00 0.00 54 1014.0
20260905170644 31 200 3.2 8.0 0.00 0.00 0.00 54 1014.0
20260905170144 31 207 3.2 6.4 0.00 0.00 0.00 54 1015.0
20260905165643 31 82 3.2 4.8 0.00 0.00 0.00 55 1015.0
20260905165143 31 286 1.6 3.2 0.00 0.00 0.00 55 1015.0
20260905164643 31 244 1.6 3.2 0.00 0.00 0.00 54 1015.0
20260905164143 31 87 1.6 3.2 0.00 0.00 0.00 56 1015.0
20260905163643 30 221 3.2 4.8 0.00 0.00 0.00 57 1015.0
20260905163143 30 122 4.8 6.4 0.00 0.00 0.00 56 1015.0
20260905162657 30 112 3.2 6.4 0.00 0.00 0.00 55 1015.0
20260905162143 30 121 1.6 3.2 0.00 0.00 0.00 56 1015.0
20260905161643 30 196 3.2 6.4 0.00 0.00 0.00 57 1015.0
20260905161143 30 105 4.8 8.0 0.00 0.00 0.00 56 1015.0
20260905160644 30 101 6.4 8.0 0.00 0.00 0.00 56 1015.0
20260905160143 29 219 1.6 4.8 0.00 0.00 0.00 58 1015.0
20260905155643 29 130 1.6 6.4 0.00 0.00 0.00 61 1015.0
20260905155143 29 113 6.4 9.7 0.00 0.00 0.00 58 1015.0
20260905154643 29 125 4.8 9.7 0.00 0.00 0.00 58 1015.0
20260905154143 29 121 3.2 8.0 0.00 0.00 0.00 59 1015.0
20260905153644 28 168 1.6 6.4 0.00 0.00 0.00 59 1015.0
20260905153143 28 136 4.8 9.7 0.00 0.00 0.00 60 1015.0
20260905152643 28 108 4.8 9.7 0.00 0.00 0.00 60 1015.0
20260905152143 28 132 4.8 8.0 0.00 0.00 0.00 62 1015.0
20260905151644 27 156 6.4 11.3 0.00 0.00 0.00 62 1015.0
20260905151143 27 125 6.4 8.0 0.00 0.00 0.00 62 1015.0
20260905150643 27 149 4.8 9.7 0.00 0.00 0.00 62 1015.0
20260905150143 27 125 4.8 8.0 0.00 0.00 0.00 62 1015.0
20260905145643 27 105 4.8 8.0 0.00 0.00 0.00 63 1015.0
20260905145143 27 128 6.4 9.7 0.00 0.00 0.00 63 1015.0
20260905144644 27 142 6.4 14.5 0.00 0.00 0.00 63 1015.0
20260905144143 26 129 6.4 16.1 0.00 0.00 0.00 64 1015.0
20260905143644 26 129 6.4 11.3 0.00 0.00 0.00 65 1015.0
20260905143148 26 116 6.4 9.7 0.00 0.00 0.00 65 1015.0
20260905142643 26 124 6.4 9.7 0.00 0.00 0.00 66 1015.0
20260905142144 26 140 4.8 8.0 0.00 0.00 0.00 66 1015.0
20260905141643 26 111 6.4 9.7 0.00 0.00 0.00 67 1015.0
20260905141145 26 108 6.4 11.3 0.00 0.00 0.00 68 1015.0
20260905140643 26 127 4.8 11.3 0.00 0.00 0.00 69 1015.0
20260905140143 25 130 8.0 11.3 0.00 0.00 0.00 68 1015.0
20260905135643 25 123 4.8 9.7 0.00 0.00 0.00 70 1015.0
20260905135143 25 99 4.8 9.7 0.00 0.00 0.00 70 1015.0
20260905134646 25 115 4.8 8.0 0.00 0.00 0.00 70 1015.0
20260905134143 25 115 3.2 9.7 0.00 0.00 0.00 72 1016.0
20260905133643 25 96 6.4 9.7 0.00 0.00 0.00 71 1015.0
20260905133144 25 150 4.8 8.0 0.00 0.00 0.00 72 1015.0
20260905132643 24 104 4.8 12.9 0.00 0.00 0.00 74 1015.0
20260905132144 24 134 4.8 9.7 0.00 0.00 0.00 73 1015.0
20260905131643 24 147 4.8 9.7 0.00 0.00 0.00 74 1016.0
20260905131143 24 84 3.2 8.0 0.00 0.00 0.00 74 1016.0
20260905130644 24 98 3.2 6.4 0.00 0.00 0.00 74 1016.0
20260905130148 24 161 3.2 6.4 0.00 0.00 0.00 75 1016.0
20260905125643 23 162 0.0 3.2 0.00 0.00 0.00 76 1016.0
20260905125143 23 129 3.2 6.4 0.00 0.00 0.00 77 1016.0
20260905124643 23 134 3.2 3.2 0.00 0.00 0.00 78 1016.0
20260905124143 23 81 1.6 3.2 0.00 0.00 0.00 80 1016.0
20260905123643 22 144 3.2 6.4 0.00 0.00 0.00 81 1016.0
20260905123143 22 106 0.0 3.2 0.00 0.00 0.00 81 1016.0
20260905122643 22 73 3.2 8.0 0.00 0.00 0.00 81 1016.0
20260905122143 22 132 3.2 4.8 0.00 0.00 0.00 81 1016.0
20260905121643 22 124 3.2 6.4 0.00 0.00 0.00 81 1016.0
20260905121143 22 167 0.0 1.6 0.00 0.00 0.00 82 1016.0
20260905120644 22 128 1.6 6.4 0.00 0.00 0.00 82 1016.0
20260905120143 22 349 1.6 3.2 0.00 0.00 0.00 83 1016.0
20260905115643 22 145 0.0 3.2 0.00 0.00 0.00 82 1016.0
20260905115143 22 149 1.6 3.2 0.00 0.00 0.00 84 1016.0
20260905114644 22 144 1.6 3.2 0.00 0.00 0.00 83 1015.0
20260905114144 22 60 3.2 4.8 0.00 0.00 0.00 83 1015.0
20260905113644 22 97 3.2 8.0 0.00 0.00 0.00 83 1015.0
20260905113143 22 97 4.8 9.7 0.00 0.00 0.00 85 1015.0
20260905112643 23 116 1.6 6.4 0.00 0.00 0.00 87 1015.0
20260905112143 23 295 1.6 4.8 0.00 0.00 0.00 86 1015.0
20260905111643 23 114 3.2 6.4 0.00 0.00 0.00 88 1015.0
20260905111144 23 92 4.8 9.7 0.00 0.00 0.00 93 1015.0
20260905110643 23 328 0.0 3.2 0.00 0.00 0.00 94 1014.0
20260905110144 23 360 0.0 0.0 0.00 0.00 0.00 94 1014.0
20260905105643 23 360 0.0 0.0 0.00 0.00 0.00 94 1014.0
20260905105143 23 360 0.0 0.0 0.00 0.00 0.00 94 1014.0
20260905104645 23 360 0.0 0.0 0.00 0.00 0.00 93 1014.0
20260905104143 23 360 0.0 0.0 0.00 0.00 0.00 93 1014.0
20260905103644 23 360 0.0 0.0 0.00 0.00 0.00 93 1014.0
20260905103143 23 360 0.0 0.0 0.00 0.00 0.00 93 1014.0
20260905102643 23 360 0.0 0.0 0.00 0.00 0.00 93 1014.0
20260905102143 23 360 0.0 0.0 0.00 0.00 0.00 92 1014.0
20260905101643 23 360 0.0 0.0 0.00 0.00 0.00 92 1014.0
20260905101144 23 360 0.0 0.0 0.00 0.00 0.00 91 1014.0
20260905100643 23 360 0.0 0.0 0.00 0.00 0.00 91 1014.0
20260905100143 23 360 0.0 0.0 0.00 0.00 0.00 91 1014.0
20260905095643 23 360 0.0 0.0 0.00 0.00 0.00 91 1014.0
20260905095144 23 360 0.0 0.0 0.00 0.00 0.00 91 1014.0
20260905094644 24 360 0.0 0.0 0.00 0.00 0.00 92 1014.0
20260905094143 24 360 0.0 0.0 0.00 0.00 0.00 91 1014.0
20260905093643 24 360 0.0 0.0 0.00 0.00 0.00 91 1014.0
20260905093143 24 360 0.0 0.0 0.00 0.00 0.00 91 1014.0
20260905092643 24 210 0.0 1.6 0.00 0.00 0.00 91 1014.0
20260905092143 24 220 0.0 1.6 0.00 0.00 0.00 90 1014.0
20260905091643 24 308 0.0 0.0 0.00 0.00 0.00 90 1014.0
20260905091144 24 360 0.0 0.0 0.00 0.00 0.00 89 1014.0
20260905090643 24 360 0.0 0.0 0.00 0.00 0.00 89 1014.0
20260905090143 25 360 0.0 0.0 0.00 0.00 0.00 88 1014.0
20260905085644 25 360 0.0 0.0 0.00 0.00 0.00 88 1014.0
20260905085144 25 297 0.0 1.6 0.00 0.00 0.00 88 1014.0
20260905084643 25 360 0.0 0.0 0.00 0.00 0.00 88 1014.0
20260905084143 25 323 0.0 0.0 0.00 0.00 0.00 88 1014.0
20260905083644 25 316 0.0 1.6 0.00 0.00 0.00 87 1013.0
20260905083143 25 266 0.0 0.0 0.00 0.00 0.00 87 1013.0
20260905082643 25 360 0.0 0.0 0.00 0.00 0.00 88 1013.0
20260905082143 25 360 0.0 0.0 0.00 0.00 0.00 87 1013.0
20260905081644 25 360 0.0 0.0 0.00 0.00 0.00 88 1013.0
20260905081144 25 260 0.0 1.6 0.00 0.00 0.00 87 1013.0
20260905080643 25 259 0.0 1.6 0.00 0.00 0.00 87 1013.0
20260905080143 25 360 0.0 0.0 0.00 0.00 0.00 88 1013.0
20260905075643 25 360 0.0 0.0 0.00 0.00 0.00 88 1013.0
20260905075143 25 360 0.0 0.0 0.00 0.00 0.00 88 1013.0
20260905074644 25 292 0.0 1.6 0.00 0.00 0.00 88 1013.0
20260905074145 25 195 0.0 3.2 0.00 0.00 0.00 88 1013.0
20260905073643 24 218 0.0 1.6 0.00 0.00 0.00 89 1013.0
20260905073143 24 360 0.0 0.0 0.00 0.00 0.00 90 1013.0
20260905072643 24 320 0.0 1.6 0.00 0.00 0.00 91 1013.0
20260905072143 24 301 0.0 1.6 0.00 0.00 0.00 92 1013.0
20260905071643 24 360 0.0 0.0 0.00 0.00 0.00 92 1013.0
20260905071143 24 360 0.0 0.0 0.00 0.00 0.00 92 1013.0
20260905070644 24 293 0.0 1.6 0.00 0.00 0.00 92 1013.0
20260905070143 24 360 0.0 0.0 0.00 0.00 0.00 92 1013.0
20260905065643 24 360 0.0 0.0 0.00 0.00 0.00 92 1013.0
20260905065144 24 360 0.0 0.0 0.00 0.00 0.00 92 1014.0
20260905064643 24 360 0.0 0.0 0.00 0.00 0.00 92 1014.0
20260905064143 24 360 0.0 0.0 0.00 0.00 0.00 92 1014.0
20260905063644 24 360 0.0 0.0 0.00 0.00 0.00 92 1014.0
20260905063144 24 360 0.0 0.0 0.00 0.00 0.00 92 1014.0
20260905062643 24 360 0.0 0.0 0.00 0.00 0.00 92 1014.0
20260905062143 24 360 0.0 0.0 0.00 0.00 0.00 92 1014.0
20260905061643 24 360 0.0 0.0 0.00 0.00 0.00 92 1014.0
20260905061144 24 360 0.0 0.0 0.00 0.00 0.00 91 1014.0
20260905060644 25 360 0.0 0.0 0.00 0.00 0.00 91 1014.0
20260905060143 25 360 0.0 0.0 0.00 0.00 0.00 91 1014.0
20260905055643 25 131 0.0 0.0 0.00 0.00 0.00 91 1014.0
20260905055143 25 360 0.0 0.0 0.00 0.00 0.00 91 1014.0
20260905054643 25 360 0.0 0.0 0.00 0.00 0.00 91 1014.0
20260905054143 25 360 0.0 0.0 0.00 0.00 0.00 90 1014.0
20260905053643 25 360 0.0 0.0 0.00 0.00 0.00 90 1014.0
20260905053143 25 360 0.0 0.0 0.00 0.00 0.00 90 1014.0
20260905052643 25 360 0.0 0.0 0.00 0.00 0.00 90 1014.0
20260905052143 25 360 0.0 0.0 0.00 0.00 0.00 90 1014.0
20260905051643 25 360 0.0 0.0 0.00 0.00 0.00 90 1014.0
20260905051143 25 360 0.0 0.0 0.00 0.00 0.00 90 1014.0
20260905050646 25 360 0.0 0.0 0.00 0.00 0.00 90 1014.0
20260905050143 25 360 0.0 0.0 0.00 0.00 0.00 90 1014.0
20260905045643 25 338 0.0 1.6 0.00 0.00 0.00 90 1014.0
20260905045143 25 360 0.0 0.0 0.00 0.00 0.00 89 1014.0
20260905044643 25 243 0.0 0.0 0.00 0.00 0.00 89 1014.0
20260905044143 25 360 0.0 0.0 0.00 0.00 0.00 89 1014.0
20260905043643 25 360 0.0 0.0 0.00 0.00 0.00 88 1014.0
20260905043143 25 179 0.0 3.2 0.00 0.00 0.00 88 1014.0
20260905042643 25 184 0.0 1.6 0.00 0.00 0.00 88 1015.0
20260905042143 25 164 0.0 1.6 0.00 0.00 0.00 88 1015.0
20260905041643 25 360 0.0 0.0 0.00 0.00 0.00 87 1015.0
20260905041143 26 360 0.0 0.0 0.00 0.00 0.00 87 1015.0
20260905040644 26 360 0.0 0.0 0.00 0.00 0.00 87 1015.0
20260905040143 26 360 0.0 0.0 0.00 0.00 0.00 87 1015.0
20260905035643 26 107 0.0 1.6 0.00 0.00 0.00 87 1015.0
20260905035143 26 44 0.0 1.6 0.00 0.00 0.00 87 1015.0
20260905034643 26 42 0.0 1.6 0.00 0.00 0.00 87 1015.0
20260905034145 26 360 0.0 0.0 0.00 0.00 0.00 87 1015.0
20260905033644 26 360 0.0 0.0 0.00 0.00 0.00 87 1015.0
20260905033147 26 360 0.0 0.0 0.00 0.00 0.00 86 1015.0
20260905032643 26 360 0.0 0.0 0.00 0.00 0.00 85 1015.0
20260905032144 26 360 0.0 0.0 0.00 0.00 0.00 85 1015.0
20260905031643 26 360 0.0 0.0 0.00 0.00 0.00 84 1015.0
20260905031143 26 360 0.0 0.0 0.00 0.00 0.00 84 1015.0
20260905030644 26 360 0.0 0.0 0.00 0.00 0.00 83 1015.0
20260905030143 26 360 0.0 0.0 0.00 0.00 0.00 83 1015.0
20260905025643 27 185 0.0 1.6 0.00 0.00 0.00 82 1015.0
20260905025144 27 360 0.0 0.0 0.00 0.00 0.00 82 1014.0
20260905024643 27 137 0.0 3.2 0.00 0.00 0.00 82 1014.0
20260905024144 27 135 3.2 4.8 0.00 0.00 0.00 83 1014.0
20260905023643 27 360 0.0 0.0 0.00 0.00 0.00 84 1014.0
20260905023144 27 360 0.0 0.0 0.00 0.00 0.00 83 1014.0
20260905022643 27 360 0.0 0.0 0.00 0.00 0.00 83 1014.0
20260905022144 27 360 0.0 0.0 0.00 0.00 0.00 82 1014.0
20260905021644 27 283 0.0 0.0 0.00 0.00 0.00 82 1014.0
20260905021143 27 360 0.0 0.0 0.00 0.00 0.00 81 1014.0
20260905020644 27 360 0.0 0.0 0.00 0.00 0.00 80 1014.0
20260905020144 27 360 0.0 0.0 0.00 0.00 0.00 80 1014.0
20260905015643 27 360 0.0 0.0 0.00 0.00 0.00 80 1014.0
20260905015143 27 305 0.0 0.0 0.00 0.00 0.00 80 1014.0
20260905014643 27 269 0.0 1.6 0.00 0.00 0.00 80 1014.0
20260905014144 27 281 0.0 0.0 0.00 0.00 0.00 80 1014.0
20260905013643 27 360 0.0 0.0 0.00 0.00 0.00 81 1014.0
20260905013143 28 360 0.0 0.0 0.00 0.00 0.00 80 1014.0
20260905012643 28 266 0.0 1.6 0.00 0.00 0.00 79 1014.0
20260905012143 28 360 0.0 0.0 0.00 0.00 0.00 78 1014.0
20260905011643 28 360 0.0 0.0 0.00 0.00 0.00 77 1014.0
20260905011143 28 360 0.0 0.0 0.00 0.00 0.00 77 1014.0
20260905010643 29 360 0.0 0.0 0.00 0.00 0.00 76 1014.0
20260905010144 29 37 0.0 0.0 0.00 0.00 0.00 76 1014.0
20260905005643 29 273 0.0 0.0 0.00 0.00 0.00 76 1014.0
20260905005143 29 360 0.0 0.0 0.00 0.00 0.00 73 1014.0
20260905004643 30 360 0.0 0.0 0.00 0.00 0.00 72 1014.0
20260905004143 30 360 0.0 0.0 0.00 0.00 0.00 71 1014.0
20260905003643 30 20 0.0 1.6 0.00 0.00 0.00 70 1014.0
20260905003143 30 48 0.0 1.6 0.00 0.00 0.00 70 1014.0
20260905002643 31 360 0.0 0.0 0.00 0.00 0.00 71 1014.0
20260905002143 31 33 0.0 0.0 0.00 0.00 0.00 67 1014.0
20260905001643 31 360 0.0 0.0 0.00 0.00 0.00 66 1014.0
20260905001143 32 10 0.0 0.0 0.00 0.00 0.00 65 1014.0
20260905000643 32 341 0.0 1.6 0.00 0.00 0.00 64 1014.0
20260905000143 32 4 0.0 1.6 0.00 0.00 0.00 64 1014.0
20260904235643 33 2 0.0 1.6 0.00 0.00 0.00 64 1014.0
20260904235144 33 44 0.0 3.2 0.00 0.00 0.00 60 1014.0
20260904234643 34 28 0.0 1.6 0.00 0.00 0.00 58 1014.0
20260904234143 35 58 0.0 1.6 0.00 0.00 0.00 57 1014.0
20260904233643 35 32 0.0 1.6 0.00 0.00 0.00 55 1014.0
20260904233143 35 3 1.6 1.6 0.00 0.00 0.00 53 1014.0
20260904232643 36 5 0.0 3.2 0.00 0.00 0.00 52 1014.0
20260904232147 36 18 1.6 3.2 0.00 0.00 0.00 52 1014.0
20260904231644 35 358 1.6 3.2 0.00 0.00 0.00 53 1014.0
20260904231143 35 323 1.6 3.2 0.00 0.00 0.00 51 1014.0
20260904230643 35 340 1.6 3.2 0.00 0.00 0.00 52 1014.0
20260904230144 35 308 1.6 4.8 0.00 0.00 0.00 52 1014.0
20260904225643 35 313 1.6 3.2 0.00 0.00 0.00 53 1014.0
20260904225143 36 296 3.2 4.8 0.00 0.00 0.00 52 1014.0
20260904224643 36 301 3.2 4.8 0.00 0.00 0.00 49 1014.0
20260904224144 36 328 1.6 4.8 0.00 0.00 0.00 50 1014.0
20260904223644 36 131 3.2 4.8 0.00 0.00 0.00 51 1014.0
20260904223143 37 331 3.2 6.4 0.00 0.00 0.00 48 1014.0
20260904222643 37 322 4.8 6.4 0.00 0.00 0.00 48 1014.0
20260904222143 37 314 3.2 6.4 0.00 0.00 0.00 48 1014.0
20260904221644 37 317 1.6 4.8 0.00 0.00 0.00 48 1014.0
20260904221144 37 316 3.2 6.4 0.00 0.00 0.00 47 1014.0
20260904220645 37 306 3.2 4.8 0.00 0.00 0.00 47 1014.0
20260904220144 37 312 3.2 6.4 0.00 0.00 0.00 46 1014.0
20260904215643 37 292 3.2 4.8 0.00 0.00 0.00 47 1014.0
20260904215143 37 335 4.8 12.9 0.00 0.00 0.00 47 1014.0
20260904214645 37 312 1.6 3.2 0.00 0.00 0.00 47 1014.0
20260904214143 37 312 3.2 9.7 0.00 0.00 0.00 47 1014.0
20260904213643 37 308 3.2 4.8 0.00 0.00 0.00 48 1014.0
20260904213147 37 314 3.2 8.0 0.00 0.00 0.00 48 1014.0
20260904212644 37 309 3.2 6.4 0.00 0.00 0.00 48 1014.0
20260904212143 37 313 3.2 6.4 0.00 0.00 0.00 49 1014.0
20260904211644 37 282 3.2 17.7 0.00 0.00 0.00 48 1014.0
20260904211143 37 313 1.6 3.2 0.00 0.00 0.00 48 1014.0
20260904210643 37 316 4.8 20.9 0.00 0.00 0.00 48 1014.0
20260904210143 37 312 3.2 3.2 0.00 0.00 0.00 46 1014.0
20260904205643 37 313 1.6 3.2 0.00 0.00 0.00 47 1014.0
20260904205144 37 329 3.2 9.7 0.00 0.00 0.00 47 1014.0
20260904204643 37 311 3.2 6.4 0.00 0.00 0.00 47 1014.0
20260904204143 37 312 3.2 4.8 0.00 0.00 0.00 47 1014.0
20260904203644 37 309 3.2 6.4 0.00 0.00 0.00 47 1014.0
20260904203143 37 321 3.2 4.8 0.00 0.00 0.00 47 1014.0
20260904202643 37 323 4.8 14.5 0.00 0.00 0.00 47 1014.0
20260904202145 37 313 3.2 3.2 0.00 0.00 0.00 48 1014.0
20260904201643 37 313 4.8 6.4 0.00 0.00 0.00 48 1014.0
20260904201143 37 314 3.2 4.8 0.00 0.00 0.00 47 1015.0
20260904200644 37 313 3.2 6.4 0.00 0.00 0.00 47 1015.0
20260904200144 37 313 3.2 4.8 0.00 0.00 0.00 46 1015.0
20260904195643 37 315 3.2 3.2 0.00 0.00 0.00 48 1015.0
20260904195146 37 314 3.2 4.8 0.00 0.00 0.00 47 1015.0
20260904194643 37 140 4.8 6.4 0.00 0.00 0.00 47 1015.0
20260904194143 37 140 4.8 6.4 0.00 0.00 0.00 47 1015.0
20260904193644 37 136 3.2 6.4 0.00 0.00 0.00 47 1015.0
20260904193143 37 135 3.2 6.4 0.00 0.00 0.00 47 1015.0
20260904192643 37 141 3.2 4.8 0.00 0.00 0.00 47 1015.0
20260904192143 37 136 3.2 4.8 0.00 0.00 0.00 46 1015.0
20260904191643 37 136 3.2 6.4 0.00 0.00 0.00 51 1015.0
20260904191143 37 137 3.2 4.8 0.00 0.00 0.00 50 1015.0
20260904190643 37 137 3.2 3.2 0.00 0.00 0.00 50 1015.0
20260904190144 37 137 3.2 4.8 0.00 0.00 0.00 49 1015.0
20260904185644 37 135 3.2 4.8 0.00 0.00 0.00 49 1015.0
20260904185144 36 136 3.2 4.8 0.00 0.00 0.00 48 1016.0
20260904184644 36 136 3.2 6.4 0.00 0.00 0.00 50 1016.0
20260904184143 36 136 3.2 4.8 0.00 0.00 0.00 50 1016.0
20260904183644 36 137 3.2 8.0 0.00 0.00 0.00 51 1016.0
20260904183145 36 140 4.8 9.7 0.00 0.00 0.00 49 1016.0
20260904182643 36 141 3.2 6.4 0.00 0.00 0.00 49 1016.0
20260904182144 36 137 3.2 6.4 0.00 0.00 0.00 49 1016.0
20260904181647 36 139 3.2 4.8 0.00 0.00 0.00 49 1016.0
20260904181144 36 138 3.2 4.8 0.00 0.00 0.00 50 1016.0
20260904180643 36 138 3.2 6.4 0.00 0.00 0.00 50 1016.0
20260904180143 36 136 3.2 4.8 0.00 0.00 0.00 50 1016.0
20260904175643 36 143 3.2 4.8 0.00 0.00 0.00 51 1016.0
20260904175143 36 139 1.6 4.8 0.00 0.00 0.00 51 1016.0
20260904174644 36 137 6.4 8.0 0.00 0.00 0.00 52 1016.0
20260904174143 36 137 3.2 6.4 0.00 0.00 0.00 52 1016.0
20260904173644 36 138 3.2 6.4 0.00 0.00 0.00 51 1016.0